timestamp,wind_dir_avg,wind_spd_avg,wind_spd_max_dir,wind_spd_gust,battery_voltage,lat,long
2023-02-14 00:04:00+00:00,72.0,7.64,75.0,10.06,12.41,47.59359,-54.27349
2023-02-14 00:14:00+00:00,70.0,7.27,69.0,8.66,12.33,47.59359,-54.27349
2023-02-14 00:24:00+00:00,76.0,6.79,66.0,9.68,12.33,47.59359,-54.27349
2023-02-14 00:34:00+00:00,77.0,5.7,80.0,7.8,12.33,47.59359,-54.27349
2023-02-14 00:44:00+00:00,71.0,7.15,80.0,10.52,12.33,47.59359,-54.27349
2023-02-14 00:54:00+00:00,77.0,6.21,66.0,7.89,12.33,47.59359,-54.27349
2023-02-14 01:04:00+00:00,63.0,8.74,56.0,10.31,12.33,47.59359,-54.27349
2023-02-14 01:14:01+00:00,63.0,9.08,60.0,10.4,12.33,47.59359,-54.27349
2023-02-14 01:24:01+00:00,69.0,9.67,70.0,11.02,12.33,47.59359,-54.27349
2023-02-14 01:34:01+00:00,74.0,9.54,70.0,11.96,12.33,47.59359,-54.27349
2023-02-14 01:44:01+00:00,79.0,6.98,68.0,10.31,12.33,47.59359,-54.27349
2023-02-14 01:54:01+00:00,74.0,7.24,71.0,9.74,12.33,47.59359,-54.27349
2023-02-14 02:04:01+00:00,77.0,8.04,65.0,12.19,12.33,47.59359,-54.27349
2023-02-14 02:14:00+00:00,75.0,6.95,62.0,12.16,12.25,47.59359,-54.27349
2023-02-14 02:24:00+00:00,71.0,9.41,71.0,13.26,12.25,47.59359,-54.27349
2023-02-14 02:34:00+00:00,75.0,9.58,78.0,13.26,12.25,47.59359,-54.27349
2023-02-14 02:44:00+00:00,79.0,8.13,76.0,12.53,12.25,47.59359,-54.27349
2023-02-14 02:54:00+00:00,71.0,10.13,74.0,14.01,12.25,47.59359,-54.27349
2023-02-14 03:04:00+00:00,72.0,10.88,71.0,14.33,12.25,47.59359,-54.27349
2023-02-14 03:14:00+00:00,70.0,12.07,67.0,14.17,12.25,47.59359,-54.27349
2023-02-14 03:24:00+00:00,74.0,11.87,78.0,13.61,12.25,47.59359,-54.27349
2023-02-14 03:34:00+00:00,73.0,12.08,69.0,14.56,12.25,47.59359,-54.27349
2023-02-14 03:44:00+00:00,71.0,11.23,68.0,14.83,12.25,47.59359,-54.27349
2023-02-14 03:54:00+00:00,78.0,10.8,80.0,14.14,12.25,47.59359,-54.27349
2023-02-14 04:04:00+00:00,73.0,9.01,71.0,13.78,12.25,47.59359,-54.27349
2023-02-14 04:14:01+00:00,72.0,10.89,69.0,13.86,12.25,47.59359,-54.27349
2023-02-14 04:24:01+00:00,76.0,10.87,76.0,14.7,12.25,47.59359,-54.27349
2023-02-14 04:34:01+00:00,68.0,12.26,63.0,13.83,12.25,47.59359,-54.27349
2023-02-14 04:44:01+00:00,72.0,10.85,69.0,13.52,12.25,47.59359,-54.27349
2023-02-14 04:54:01+00:00,72.0,12.35,70.0,14.64,12.25,47.59359,-54.27349
2023-02-14 05:04:01+00:00,74.0,12.14,74.0,14.25,12.25,47.59359,-54.27349
2023-02-14 05:14:00+00:00,67.0,11.98,66.0,14.07,12.25,47.59359,-54.27349
2023-02-14 05:24:00+00:00,67.0,11.69,78.0,13.64,12.25,47.59359,-54.27349
2023-02-14 05:34:00+00:00,68.0,11.94,67.0,14.39,12.25,47.59359,-54.27349
2023-02-14 05:44:00+00:00,71.0,11.95,65.0,14.09,12.25,47.59359,-54.27349
2023-02-14 05:54:00+00:00,70.0,12.6,65.0,14.29,12.25,47.59359,-54.27349
2023-02-14 06:04:00+00:00,62.0,12.79,62.0,17.48,12.25,47.59359,-54.27349
2023-02-14 06:14:00+00:00,66.0,12.2,59.0,14.19,12.17,47.59359,-54.27349
2023-02-14 06:24:00+00:00,69.0,11.93,65.0,16.33,12.17,47.59359,-54.27349
2023-02-14 06:34:00+00:00,68.0,12.19,61.0,14.04,12.17,47.59359,-54.27349
2023-02-14 06:44:00+00:00,69.0,11.8,61.0,13.43,12.17,47.59359,-54.27349
2023-02-14 06:54:00+00:00,68.0,12.1,71.0,13.8,12.17,47.59359,-54.27349
2023-02-14 07:04:00+00:00,66.0,11.71,64.0,14.64,12.17,47.59359,-54.27349
2023-02-14 07:14:00+00:00,64.0,11.9,69.0,14.08,12.17,47.59359,-54.27349
2023-02-14 07:24:00+00:00,63.0,12.87,59.0,14.61,12.17,47.59359,-54.27349
2023-02-14 07:34:00+00:00,58.0,13.21,56.0,14.85,12.17,47.59359,-54.27349
2023-02-14 07:44:00+00:00,64.0,12.58,56.0,14.46,12.17,47.59359,-54.27349
2023-02-14 07:54:00+00:00,61.0,12.59,53.0,14.63,12.17,47.59359,-54.27349
2023-02-14 08:04:00+00:00,61.0,12.55,53.0,14.46,12.17,47.59359,-54.27349
2023-02-14 08:14:00+00:00,58.0,13.18,55.0,15.05,12.17,47.59359,-54.27349
2023-02-14 08:24:00+00:00,57.0,13.97,55.0,17.85,12.17,47.59359,-54.27349
2023-02-14 08:34:00+00:00,56.0,14.4,63.0,22.68,12.17,47.59359,-54.27349
2023-02-14 08:44:00+00:00,64.0,16.54,72.0,22.6,12.17,47.59359,-54.27349
2023-02-14 08:54:00+00:00,60.0,18.35,60.0,23.46,12.17,47.59359,-54.27349
2023-02-14 09:04:00+00:00,67.0,16.79,70.0,22.48,12.17,47.59359,-54.27349
2023-02-14 09:14:00+00:00,60.0,16.21,63.0,21.52,12.17,47.59359,-54.27349
2023-02-14 09:24:00+00:00,57.0,16.43,60.0,23.02,12.17,47.59359,-54.27349
2023-02-14 09:34:00+00:00,57.0,17.41,59.0,23.1,12.17,47.59359,-54.27349
2023-02-14 09:44:00+00:00,58.0,16.36,59.0,21.39,12.17,47.59359,-54.27349
2023-02-14 09:54:00+00:00,64.0,16.07,72.0,21.46,12.17,47.59359,-54.27349
2023-02-14 10:04:00+00:00,62.0,18.27,60.0,23.53,12.17,47.59359,-54.27349
2023-02-14 10:14:00+00:00,57.0,15.38,64.0,21.54,12.17,47.59359,-54.27349
2023-02-14 10:24:00+00:00,58.0,14.68,65.0,19.51,12.17,47.59359,-54.27349
2023-02-14 10:34:00+00:00,51.0,14.06,51.0,16.34,12.17,47.59359,-54.27349
2023-02-14 10:44:00+00:00,57.0,15.54,58.0,21.19,12.17,47.59359,-54.27349
2023-02-14 10:54:00+00:00,61.0,14.78,64.0,18.81,12.17,47.59359,-54.27349
2023-02-14 11:04:00+00:00,61.0,14.21,65.0,20.99,12.17,47.59359,-54.27349
2023-02-14 11:14:00+00:00,63.0,15.05,67.0,21.47,12.17,47.59359,-54.27349
2023-02-14 11:24:00+00:00,50.0,14.44,53.0,18.62,12.17,47.59359,-54.27349
2023-02-14 11:34:00+00:00,55.0,16.91,63.0,21.45,12.17,47.59359,-54.27349
2023-02-14 11:44:00+00:00,55.0,15.31,63.0,19.85,12.17,47.59359,-54.27349
2023-02-14 11:54:00+00:00,55.0,19.11,57.0,24.14,12.17,47.59359,-54.27349
2023-02-14 12:04:00+00:00,54.0,16.14,61.0,23.04,12.17,47.59359,-54.27349
2023-02-14 12:14:00+00:00,57.0,19.27,62.0,23.69,12.25,47.59359,-54.27349
2023-02-14 12:24:00+00:00,45.0,17.32,54.0,22.01,12.25,47.59359,-54.27349
2023-02-14 12:34:00+00:00,51.0,20.27,54.0,26.33,12.25,47.59359,-54.27349
2023-02-14 12:44:00+00:00,42.0,16.21,40.0,18.88,12.25,47.59359,-54.27349
2023-02-14 12:54:00+00:00,54.0,18.38,58.0,24.07,12.25,47.59359,-54.27349
2023-02-14 13:04:00+00:00,44.0,15.66,39.0,17.93,12.25,47.59359,-54.27349
2023-02-14 13:14:00+00:00,43.0,16.26,50.0,19.16,12.25,47.59359,-54.27349
2023-02-14 13:24:00+00:00,53.0,19.63,54.0,24.95,12.25,47.59359,-54.27349
2023-02-14 13:34:00+00:00,43.0,18.09,44.0,22.38,12.25,47.59359,-54.27349
2023-02-14 13:44:00+00:00,44.0,17.23,60.0,23.02,12.25,47.59359,-54.27349
2023-02-14 13:54:00+00:00,50.0,16.85,57.0,21.86,12.25,47.59359,-54.27349
2023-02-14 14:04:00+00:00,50.0,15.51,61.0,22.48,12.25,47.59359,-54.27349
2023-02-14 14:14:01+00:00,52.0,16.58,56.0,21.83,12.65,47.59359,-54.27349
2023-02-14 14:24:01+00:00,49.0,19.3,54.0,25.48,12.65,47.59359,-54.27349
2023-02-14 14:34:01+00:00,46.0,17.03,50.0,21.74,12.65,47.59359,-54.27349
2023-02-14 14:44:01+00:00,57.0,16.69,59.0,23.28,12.65,47.59359,-54.27349
2023-02-14 14:54:01+00:00,53.0,16.48,62.0,22.47,12.65,47.59359,-54.27349
2023-02-14 15:04:01+00:00,49.0,15.06,51.0,18.71,12.65,47.59359,-54.27349
2023-02-14 15:14:00+00:00,51.0,16.98,62.0,24.0,13.6,47.59359,-54.27349
2023-02-14 15:24:00+00:00,55.0,18.28,59.0,24.21,13.6,47.59359,-54.27349
2023-02-14 15:34:00+00:00,49.0,17.47,58.0,24.48,13.6,47.59359,-54.27349
2023-02-14 15:44:00+00:00,57.0,19.75,55.0,24.77,13.6,47.59359,-54.27349
2023-02-14 15:54:00+00:00,54.0,20.09,55.0,25.62,13.6,47.59359,-54.27349
2023-02-14 16:04:00+00:00,46.0,18.47,55.0,23.87,13.6,47.59359,-54.27349
2023-02-14 16:14:00+00:00,51.0,17.92,61.0,23.66,13.44,47.59359,-54.27349
2023-02-14 16:24:00+00:00,51.0,17.75,57.0,23.48,13.44,47.59359,-54.27349
2023-02-14 16:34:00+00:00,50.0,18.15,56.0,25.14,13.44,47.59359,-54.27349
2023-02-14 16:44:00+00:00,52.0,19.98,55.0,25.4,13.44,47.59359,-54.27349
2023-02-14 16:54:00+00:00,48.0,17.87,53.0,21.64,13.44,47.59359,-54.27349
2023-02-14 17:04:00+00:00,53.0,17.0,54.0,25.31,13.44,47.59359,-54.27349
2023-02-14 17:14:01+00:00,49.0,19.98,55.0,25.63,13.6,47.59359,-54.27349
2023-02-14 17:24:01+00:00,49.0,18.14,56.0,24.5,13.6,47.59359,-54.27349
2023-02-14 17:34:01+00:00,53.0,19.17,50.0,24.83,13.6,47.59359,-54.27349
2023-02-14 17:44:01+00:00,51.0,19.4,52.0,26.31,13.6,47.59359,-54.27349
2023-02-14 17:54:01+00:00,46.0,17.03,53.0,24.29,13.6,47.59359,-54.27349
2023-02-14 18:04:01+00:00,50.0,18.97,57.0,24.58,13.6,47.59359,-54.27349
2023-02-14 18:14:00+00:00,50.0,17.38,52.0,22.97,13.68,47.59359,-54.27349
2023-02-14 18:24:00+00:00,51.0,17.34,59.0,23.29,13.68,47.59359,-54.27349
2023-02-14 18:34:00+00:00,52.0,20.72,54.0,24.88,13.68,47.59359,-54.27349
2023-02-14 18:44:00+00:00,45.0,17.73,47.0,21.21,13.68,47.59359,-54.27349
2023-02-14 18:54:00+00:00,47.0,18.73,56.0,23.26,13.68,47.59359,-54.27349
2023-02-14 19:04:00+00:00,40.0,17.59,36.0,20.69,13.68,47.59359,-54.27349
2023-02-14 19:14:00+00:00,43.0,17.54,43.0,21.32,13.37,47.59359,-54.27349
2023-02-14 19:24:00+00:00,40.0,18.47,33.0,21.54,13.37,47.59359,-54.27349
2023-02-14 19:34:00+00:00,48.0,16.92,41.0,19.5,13.37,47.59359,-54.27349
2023-02-14 19:44:00+00:00,46.0,18.19,51.0,23.7,13.37,47.59359,-54.27349
2023-02-14 19:54:00+00:00,44.0,15.81,41.0,18.47,13.37,47.59359,-54.27349
2023-02-14 20:04:00+00:00,39.0,17.82,48.0,23.12,13.37,47.59359,-54.27349
2023-02-14 21:14:00+00:00,32.0,15.37,33.0,17.57,12.41,47.59359,-54.27349
2023-02-14 21:24:00+00:00,31.0,15.7,32.0,17.9,12.41,47.59359,-54.27349
2023-02-14 21:34:00+00:00,31.0,15.38,37.0,17.43,12.41,47.59359,-54.27349
2023-02-14 21:44:00+00:00,24.0,14.14,34.0,17.45,12.41,47.59359,-54.27349
2023-02-14 21:54:00+00:00,28.0,15.36,28.0,17.97,12.41,47.59359,-54.27349
2023-02-14 22:04:00+00:00,29.0,15.85,31.0,18.25,12.41,47.59359,-54.27349
2023-02-14 22:14:00+00:00,25.0,16.12,15.0,18.62,12.41,47.59359,-54.27349
2023-02-14 22:24:00+00:00,28.0,15.68,32.0,18.05,12.41,47.59359,-54.27349
2023-02-14 22:34:00+00:00,27.0,15.56,30.0,17.72,12.41,47.59359,-54.27349
2023-02-14 22:44:00+00:00,28.0,18.96,30.0,22.53,12.41,47.59359,-54.27349
2023-02-14 22:54:00+00:00,25.0,16.66,31.0,19.92,12.41,47.59359,-54.27349
2023-02-14 23:04:00+00:00,28.0,16.1,31.0,20.16,12.41,47.59359,-54.27349
2023-02-14 23:14:00+00:00,30.0,17.19,29.0,20.16,12.33,47.59359,-54.27349
2023-02-14 23:24:00+00:00,28.0,18.08,28.0,21.03,12.33,47.59359,-54.27349
2023-02-14 23:34:00+00:00,21.0,17.01,18.0,21.03,12.33,47.59359,-54.27349
2023-02-14 23:44:00+00:00,27.0,16.81,33.0,20.1,12.33,47.59359,-54.27349
2023-02-14 23:54:00+00:00,22.0,17.35,27.0,20.6,12.33,47.59359,-54.27349
